Flag for U.S.A. Weather past 2 weeks in Salt Lake City, Utah, U.S.A.

Now
61 °F

Partly sunny.


Feels Like: 61 °F
Forecast: 52 / 65 °F
Wind: 6 mph from Southeast

Location: Salt Lake City International Airport

Current Time: May 22, 2015 at 12:13:28 PM

Latest Report: May 22, 2015 at 11:53 AM


Visibility: 10 mi

Pressure: 29.80 "Hg

Humidity: 52%

Dew point: 43 °F

Location of Salt Lake CityLocation

Historic Weather in Salt Lake City — Graph

°F

Salt Lake City temperature yesterday

Maximum temperature yesterday: 67 °F (at 1:53 PM)
Minimum temperature yesterday: 48 °F (at 5:53 AM)
Average temperature yesterday: 58 °F

Past Weeks' High & Low Weather Summary

 TemperatureHumidityPressure
High77 °F (May 12, 3:53 PM)97% (May 17, 6:53 AM)30.05 "Hg (May 17, 6:53 AM)
Low44 °F (May 9, 5:53 PM)11% (May 13, 5:53 PM)29.55 "Hg (May 12, 5:53 PM)
Average56 °F61%29.81 "Hg
* Reported May 7 10:53 AM — May 22 10:53 AM, Salt Lake City, Weather by CustomWeather, © 2015

Note: Actual official high and low records may vary slightly from our data, if they occured in-between our weather recording intervals... More about our weather records

Advertising

Salt Lake City weather history for previous 24 hours

 ConditionsComfort  
Time TempWeatherWind HumidityBarometerVisibility
10:53 AM
Fri, May 22
60 °FBroken clouds.6 mph58%29.80 "Hg10 mi
9:53 AM57 °FBroken clouds.7 mph60%29.81 "Hg10 mi
8:53 AM56 °FBroken clouds.6 mph62%29.82 "Hg10 mi
7:53 AM53 °FPartly sunny.7 mph74%29.82 "Hg10 mi
6:53 AM52 °FPassing clouds.7 mph75%29.82 "Hg10 mi
5:53 AM51 °FPassing clouds.8 mph74%29.80 "Hg10 mi
4:53 AM52 °FPassing clouds.8 mph80%29.81 "Hg10 mi
3:53 AM54 °FPassing clouds.9 mph74%29.79 "Hg10 mi
2:53 AM54 °FPassing clouds.6 mph80%29.80 "Hg10 mi
1:53 AM55 °FPassing clouds.No wind77%29.78 "Hg10 mi
12:53 AM56 °FPassing clouds.3 mph75%29.79 "Hg10 mi
11:53 PM
Thu, May 21
57 °FPartly cloudy.8 mph67%29.78 "Hg10 mi
10:53 PM59 °FPassing clouds.No wind60%29.78 "Hg10 mi
9:53 PM60 °FOvercast.No wind58%29.78 "Hg10 mi
8:53 PM60 °FCloudy.No wind60%29.79 "Hg10 mi
7:53 PM60 °FPartly sunny.8 mph62%29.79 "Hg10 mi
6:53 PM61 °FPartly sunny.7 mph54%29.80 "Hg10 mi
5:53 PM62 °FMostly cloudy.9 mph52%29.81 "Hg10 mi
4:53 PM60 °FCloudy.14 mph56%29.83 "Hg10 mi
3:53 PM64 °FCloudy.13 mph47%29.81 "Hg10 mi
2:53 PM64 °FLight rain. Broken clouds.13 mph43%29.80 "Hg10 mi
1:53 PM67 °FBroken clouds.5 mph41%29.81 "Hg10 mi
12:53 PM65 °FBroken clouds.9 mph51%29.83 "Hg10 mi
Weather by CustomWeather, © 2015

See weather overviewHow to use our weather pages